date,time(arrival),lon,lat,elon,elat,HP-Tx(arrival),HP-Ty(arrival),Cons-Type,date(emission),time(emission),HP-Tx(emission),HP-Ty(emission)
2023-03-19,00:00:00,103.78493496397623,17.941023046836733,61.19557898596391,23.115200934343992,499.918860064189,390.9861916427105,Kent(MLE),2023-03-18,14:23:12.749546,426.8528045147113,396.5276804102334
2023-03-19,01:00:00,103.97425876111281,17.904311015916264,61.063282906751425,23.18910455624371,509.9183827497897,389.58694430072933,Kent(MLE),2023-03-18,14:56:53.760459,433.99898207533545,395.4837200796353
2023-03-19,02:00:00,104.25331571787441,18.1393645182637,61.128798246269554,23.607885258224712,520.2159589735595,392.25089659921616,Kent(MLE),2023-03-18,15:34:13.041365,442.16086170099874,398.48477262196184
2023-03-19,03:00:00,104.46562102415719,18.18240292140735,61.0325613357086,23.557527972070854,530.0833915612436,392.0194065899793,Kent(MLE),2023-03-18,16:30:09.108423,452.185017676669,398.4176951022965
2023-03-19,04:00:00,104.75119913677328,18.53629931993053,61.580231875547796,23.585981798201022,539.819523373927,396.45693360227546,Kent(MLE),2023-03-18,17:30:35.585184,462.87469762397694,402.97890965036316
2023-03-19,05:00:00,104.96914289299247,18.655065977110137,62.78217006837914,23.518895873378703,549.281645263129,397.3455069606829,Kent(MLE),2023-03-18,18:35:29.541039,473.6951320401519,403.94192869136776
2023-03-19,06:00:00,105.20094083384255,18.836386071745455,61.34345863335439,23.781341528953835,558.5941140329853,399.158024103188,Kent(MLE),2023-03-18,19:48:29.246321,485.4099735124468,405.74426819695753
2023-03-19,07:00:00,105.45335022215066,19.084583989774924,61.52116912222271,24.096106744226,567.8015418449141,401.9483349982914,Kent(MLE),2023-03-18,20:33:58.865556,493.67931466232005,408.79968417795993
2023-03-19,08:00:00,105.73425184970793,19.387941162229335,60.588949508299336,23.8076092078469,577.010099125114,405.5217794121257,Kent(MLE),2023-03-18,21:21:58.684936,502.35570185177716,412.61812297257853
2023-03-19,09:00:00,106.08892100282989,19.76973989425644,61.5803094912992,24.285440573558205,586.6461182306816,410.16763283230983,Kent(MLE),2023-03-18,22:55:19.664491,517.0434944276589,417.0384157437382
2023-03-19,10:00:00,106.50473703703447,20.156074417522515,61.754170832762156,24.485526715645165,596.7663948914807,414.7679366467044,Kent(MLE),2023-03-18,23:47:44.943413,527.3604840511571,421.8493178322317
2023-03-19,11:00:00,106.90836714637227,20.518686884692542,62.55780786652777,24.340020633231276,606.5833253087179,418.98847238902584,Kent(MLE),2023-03-18,23:40:37.761564,530.4563159828027,426.9352552856081
2023-03-19,12:00:00,107.29955955658725,20.850780776255622,61.30230954862432,24.72985402380504,616.136166174339,422.73105249616424,Kent(MLE),2023-03-19,00:31:46.415544,540.1890843943646,430.9132055271131
2023-03-19,13:00:00,107.65212275854364,21.113136557724406,62.719171632434104,24.82576020557218,625.312166833625,425.44532583607827,Kent(MLE),2023-03-19,00:43:21.908408,544.9946747217695,434.3063874094733
2023-03-19,14:00:00,107.98698524045909,21.338091043009296,61.878794988608256,24.63830548641406,634.2483538510932,427.5970252012483,Kent(MLE),2023-03-19,01:50:15.587050,555.9164323986821,436.517821205544
2023-03-19,15:00:00,108.31113693444101,21.536701464466187,63.16265056100434,24.997644552828845,642.9922290956594,429.346323028384,Kent(MLE),2023-03-19,02:36:14.783551,564.2848781558315,438.5641852804165
2023-03-19,16:00:00,108.60771977079268,21.70970728559549,61.64527426245587,24.923805132169413,651.3716464372648,430.73076852550736,Kent(MLE),2023-03-19,03:23:28.541831,572.4322365280615,440.23020385013353
2023-03-19,17:00:00,108.87311405216191,21.85486641653707,63.59985156921704,25.205705593085444,659.3795161955616,431.72497768928304,Kent(MLE),2023-03-19,03:10:45.874125,573.6439217511077,442.21528131409127
2023-03-19,18:00:00,109.12315612155575,21.985762198783007,62.8886802455347,25.341005342420008,667.1387734655829,432.5123305993758,Kent(MLE),2023-03-19,03:50:34.753848,580.4513668621762,443.3800757329525
2023-03-19,19:00:00,109.36015638787711,22.104651598857732,62.333927509100434,25.214258930403627,674.6724212996452,433.1247043736308,Kent(MLE),2023-03-19,04:31:49.637235,587.2257340671018,444.3547311546373
2023-03-19,20:00:00,109.17307852345083,19.925533930987868,62.65984355022092,24.7434674301528,688.3825965780146,399.6230939626053,Kent(MLE),2023-03-19,04:59:16.830257,596.674272847178,411.4664864478591
2023-03-19,21:00:00,109.37764835647526,20.02272850219349,62.00829059898477,24.8282387537245,695.6478100462734,399.95216732374234,Kent(MLE),2023-03-19,05:15:32.068805,600.5056214922138,412.47524848500973
2023-03-19,22:00:00,109.56881650479892,20.11178359047095,61.302282088601594,24.437433781614494,702.6831310656681,400.1656388395788,Kent(MLE),2023-03-19,06:01:11.473589,607.3440642463779,413.0092654604531
2023-03-19,23:00:00,109.74641190285527,20.19262170379983,63.15751668676088,24.999773511797528,709.4944005632209,400.2635307674969,Kent(MLE),2023-03-19,07:07:55.211306,616.2143112365244,413.1618728253321
2023-03-20,00:00:00,109.91154343206487,20.266657996305426,61.44350682934303,24.748666509361342,716.092939283098,400.2665737565846,Kent(MLE),2023-03-19,07:45:36.568285,621.7983295069065,413.5836819978679
2023-03-20,01:00:00,109.75053087756157,20.434926608230704,61.010898115801396,24.312785667025086,719.0256089696497,402.2073962869612,Kent(MLE),2023-03-19,08:19:10.858008,622.7904603955694,415.9254471571692
2023-03-20,02:00:00,109.14988904777842,18.072719801643157,56.57744726526264,22.97406235734699,728.9944425602529,365.9739188689325,Kent(MLE),2023-03-19,09:00:53.370801,629.3182162609701,380.0895267549255
2023-03-20,03:00:00,109.26377636695635,18.084219683865534,57.039118538552195,22.924920142175097,735.319619586532,365.0805982884864,Kent(MLE),2023-03-19,09:43:22.718837,635.1057069307301,379.5609791473347
2023-03-20,04:00:00,109.34946603283333,18.131620543397002,57.40866696028873,23.52393822956394,741.1268692812965,364.78093119337916,Kent(MLE),2023-03-19,10:12:11.170191,638.9532006733931,379.7986064988115
2023-03-20,05:00:00,109.42486777695902,18.183086819280298,56.19415606923492,22.886387551621556,746.7258301118211,364.5533873715241,Kent(MLE),2023-03-19,10:34:56.580497,642.0099903454187,380.1897382145994
2023-03-20,06:00:00,108.77952255401362,14.080370812654609,53.14941978400925,22.25364883373353,761.5129298199224,300.18896521611117,Kent(MLE),2023-03-19,10:58:08.259691,650.4492308922709,316.56800058263303
2023-03-20,07:00:00,108.8386609307375,14.129731961126897,53.561865598374645,22.03890677548866,767.0568702713196,299.95208175564454,Kent(MLE),2023-03-19,11:40:23.982168,655.5214031973367,316.70537674569294
2023-03-20,08:00:00,108.90593362705081,14.146325838908538,54.14371232717585,21.96897883651892,772.6972117807915,299.17276077448577,Kent(MLE),2023-03-19,12:23:46.272349,660.8578574443175,316.29143994215394
2023-03-20,09:00:00,108.84649468773421,13.887913082546463,52.54817065323638,21.740087182779924,778.0365272713049,294.2160531432672,Kent(MLE),2023-03-19,13:07:23.428120,665.5228611394749,311.6857977334366
2023-03-20,10:00:00,108.5344802784134,11.911254036005358,50.93838312069597,21.481045381951382,786.3938147818338,262.09334694086215,Kent(MLE),2023-03-19,13:56:57.593301,672.4679273442221,279.87184513216204
2023-03-20,11:00:00,107.95956272174327,20.45945548163158,56.327030748594105,19.861157090745266,752.6270016007885,396.4988875953273,Kent(MLE),2023-03-19,14:57:10.904322,643.5032062401766,413.6215720232813
2023-03-20,12:00:00,107.9271607257165,20.373517757326397,57.34697310949379,19.767296742745526,757.5134886616197,394.3236927601682,Kent(MLE),2023-03-19,15:55:53.502175,649.4305188670361,411.58880587444395
2023-03-20,13:00:00,107.88408788769054,20.25793819779353,55.929438508542376,19.366667304462872,762.3967574643818,391.7065496381464,Kent(MLE),2023-03-19,16:53:10.947817,655.1796893581077,409.1324752786597
2023-03-20,14:00:00,107.85229607669032,20.159268804229452,56.34127026335613,19.156084440280974,767.2342654325413,389.322316760658,Kent(MLE),2023-03-19,17:49:07.845037,660.8046079512169,406.9272516951243
2023-03-20,15:00:00,107.81991575883644,20.055314447768655,55.27293352902792,18.944258606857414,772.0330757858804,386.8513824247613,Kent(MLE),2023-03-19,18:43:47.978303,666.2780358569929,404.6525613585226
2023-03-20,16:00:00,107.7820375761231,19.956688651106923,55.15859713700557,18.745402474339535,776.7005699167438,384.4646941794413,Kent(MLE),2023-03-19,19:37:14.420110,671.5103618292482,402.47687218027033
2023-03-20,17:00:00,107.74104144533204,19.85965946429212,55.181875186958244,18.695795012219886,781.2756625652981,382.10140198428473,Kent(MLE),2023-03-19,20:23:36.615873,675.982723074465,400.421069550968
2023-03-20,18:00:00,108.76919679324887,12.04455149362942,51.542134411403154,21.37794107876981,825.3515389223658,256.0660088879881,Kent(MLE),2023-03-19,21:08:04.522052,718.5680472430992,275.582784400474
2023-03-20,19:00:00,108.77807655607384,12.057603918209983,51.348169163909745,21.52524658280606,829.6932531631535,255.26616183422925,Kent(MLE),2023-03-19,21:53:32.547592,723.0407115120935,275.11609919353884
2023-03-20,20:00:00,108.76563322531014,12.097766373752021,51.75048712852319,21.566122583509134,833.7070279991281,254.93749871690176,Kent(MLE),2023-03-19,22:40:01.140298,727.2718557463833,275.1002392278281
2023-03-20,21:00:00,108.76616041402815,12.108703750476224,51.358094789929304,21.218766553160275,837.8351632238928,254.10937616585267,Kent(MLE),2023-03-19,23:27:30.461024,731.7744601480603,274.57522940492987
2023-03-20,22:00:00,108.76379210941981,12.117995521394255,52.13389055609164,21.495258574654816,841.8690675339805,253.2554873888619,Kent(MLE),2023-03-20,00:16:00.396065,736.303727364462,274.0093166460731
2023-03-20,23:00:00,108.75823888481854,12.125835679835395,50.78517787547214,21.186991467230882,845.8069867284452,252.37965042610213,Kent(MLE),2023-03-20,01:05:30.571240,740.8535107783018,273.4060404289265
2023-03-21,00:00:00,108.74936844317472,12.133066672070948,51.19000530658106,21.182695970563895,849.6463615642826,251.49587423878143,Kent(MLE),2023-03-20,01:56:00.369586,745.4171316664911,272.7791926921502
2023-03-21,01:00:00,108.7311925140827,12.135288634885642,51.39657493242699,21.55064073978303,853.3607983186299,250.5442907388614,Kent(MLE),2023-03-20,02:47:00.446479,749.9007263459357,272.0750143067061
2023-03-21,02:00:00,108.70770810954966,12.141638040421572,51.15723251466354,21.310807520965977,856.9518121962143,249.66536231556609,Kent(MLE),2023-03-20,03:29:08.131369,753.4726050319084,271.57669577091895
2023-03-21,03:00:00,108.6804315129222,12.1494648303412,50.949815164201546,21.396407394369614,860.4398586917365,248.8136942170344,Kent(MLE),2023-03-20,04:10:05.118670,756.8669096291691,271.12370464459906
2023-03-21,04:00:00,108.65024587568695,12.156392475439501,50.92731909431928,20.94343616095847,863.839689942846,247.94941659575446,Kent(MLE),2023-03-20,04:49:49.512579,760.0996065278191,270.67716647937993
2023-03-21,05:00:00,108.61766883546146,12.161207117376643,50.69100986667495,20.804537366751543,867.1595687425474,247.05208236808585,Kent(MLE),2023-03-20,05:28:19.071377,763.1791048127674,270.21756483398707
2023-03-21,06:00:00,108.58377273980767,12.160323358693827,50.611907339803906,21.046309703644113,870.4188186216523,246.0618402953601,Kent(MLE),2023-03-20,06:05:31.193475,766.1253654581409,269.68636244581376
2023-03-21,07:00:00,108.5484513410057,12.154786127768391,51.20367570097628,21.15595244382888,873.6138324116724,244.99584183325283,Kent(MLE),2023-03-20,06:41:22.900980,768.9329695832386,269.1015502675554
2023-03-21,08:00:00,108.51181201893644,12.144414556100646,50.32539508892566,21.285074525263994,876.7463312985922,243.85102214274454,Kent(MLE),2023-03-20,07:15:50.818398,771.6014893445447,268.4611349709543
2023-03-21,09:00:00,108.47490763777242,12.128103386419703,50.659487298273426,21.07931321420891,879.8265663086255,242.60756056981592,Kent(MLE),2023-03-20,07:52:53.128639,774.4871148119356,267.683889902815
2023-03-21,10:00:00,108.43820786314944,12.104644874036032,50.777523791648,21.138298480598472,882.8612163341878,241.24503538067245,Kent(MLE),2023-03-20,08:43:01.165025,778.485771453148,266.58438333724354
2023-03-21,11:00:00,108.40184412525834,12.073227636022496,50.6470542921567,20.963247951442476,885.8534764514415,239.75004144595377,Kent(MLE),2023-03-20,09:33:23.809838,782.4891771220546,265.34875661414446
2023-03-21,12:00:00,108.36639688087284,12.03318817502766,50.441696526687295,21.017736695880537,888.8083717555943,238.11067659534743,Kent(MLE),2023-03-20,10:24:00.897049,786.5034828727378,263.9652397742097
2023-03-21,13:00:00,108.3321732256077,11.984021537535696,50.33218184884263,21.14125646119078,891.7285586150431,236.31808813799708,Kent(MLE),2023-03-20,11:14:52.255580,790.5316298309714,262.4250387466851
2023-03-21,14:00:00,108.29946796421693,11.925365055435687,49.8225292570029,21.079216246364535,894.6159001709306,234.36571735944455,Kent(MLE),2023-03-20,12:13:56.204516,795.2212233020023,260.5942776106818
2023-03-21,15:00:00,108.26804872896922,11.854875894530602,50.39186534936452,21.005213522991806,897.4758857807002,232.21588627709656,Kent(MLE),2023-03-20,13:24:49.151144,800.8355702784239,258.37525219917427
2023-03-21,16:00:00,108.23833236132984,11.762534250968418,49.22149300976245,20.955055487367478,900.3423190137246,229.70503228557897,Kent(MLE),2023-03-20,14:36:22.143669,806.4887587761594,255.78207381792348
2023-03-21,17:00:00,108.2381859081817,11.57528449256823,49.2253143927971,21.071080517781144,903.5827499981698,225.5923655089888,Kent(MLE),2023-03-20,15:48:30.742812,812.6183669200047,251.58545213254362
2023-03-21,18:00:00,108.31101987117377,11.268328970457217,48.5376516565941,21.220907260019093,907.4485964484455,219.38502993035178,Kent(MLE),2023-03-20,16:51:20.391732,818.8824661278926,245.46351435393794
2023-03-21,19:00:00,108.38877444966656,10.977518993728903,48.46358817764544,21.06881328102833,911.158547126312,213.41934381871403,Kent(MLE),2023-03-20,17:44:31.847075,824.3110535561601,239.7377203742333
2023-03-21,20:00:00,110.41301618539974,10.867413322732789,44.476254741066185,21.13497597225048,921.8762983968855,206.5521221349264,Kent(MLE),2023-03-20,18:37:56.915355,844.1738382620047,233.41197522344746
2023-03-21,21:00:00,115.46264175764053,11.89596820084841,34.836478209902495,19.76613499698157,934.6075040408754,212.1342585380243,Kent(MLE),2023-03-20,19:32:07.647852,878.3106290153695,239.75851447966858
2023-03-21,22:00:00,121.72487631243256,12.33730328341891,15.79197324868669,14.052894257656195,nan,nan,Kent(MLE),2023-03-20,20:34:15.850324,911.2290413950475,233.68685008751882
2023-03-21,23:00:00,122.88351142220716,12.050202657667695,10.7134284232665,13.150175804996254,nan,nan,Kent(MLE),2023-03-20,21:36:45.968781,918.8817947816905,225.6060502278196
2023-03-22,00:00:00,122.95275492124149,11.82829540237617,10.499314392647609,13.519424844523614,nan,nan,Kent(MLE),2023-03-20,22:39:36.814901,921.8984315579605,220.71545082106454
2023-03-22,01:00:00,123.01468952704556,11.709875593531784,10.483425373823254,13.832892027473338,nan,nan,Kent(MLE),2023-03-20,23:12:18.256446,923.5137759369959,218.06830842195072
2023-03-22,02:00:00,123.06097318872614,11.525633666856908,10.217692173932454,13.826416188984135,nan,nan,Kent(MLE),2023-03-20,23:42:17.966797,925.1773559964325,214.42854728426863
2023-03-22,03:00:00,123.09238236129394,11.412725737348374,10.11861274544985,13.972126621677942,nan,nan,Kent(MLE),2023-03-21,00:14:13.099303,926.5788740497019,211.94141194775568
2023-03-22,04:00:00,123.10724280125532,11.346811656436374,9.953281998297093,13.851278319131431,nan,nan,Kent(MLE),2023-03-21,01:33:35.191321,929.0420669714316,209.3776320449839
2023-03-22,05:00:00,123.10815099160084,11.308325434678867,9.819803425979382,13.891620420815157,nan,nan,Kent(MLE),2023-03-21,02:52:53.257261,931.2197557753365,207.2866541477132
2023-03-22,06:00:00,123.04744830830802,11.2483987933413,9.639161300229008,13.840303616210052,nan,nan,Kent(MLE),2023-03-21,04:08:11.192297,933.0674814735065,205.04109908644566
2023-03-22,07:00:00,123.02236786677912,11.22675347736996,9.584498434424937,13.878044619143251,nan,nan,Kent(MLE),2023-03-21,05:16:08.444516,934.6039142209158,203.4820608278851
2023-03-22,08:00:00,123.0151590967188,11.228881706146554,9.46234227336418,13.769791246173769,nan,nan,Kent(MLE),2023-03-21,06:24:16.514940,936.0046850396859,202.2701130153165
2023-03-22,09:00:00,123.00405501354973,11.240845843935286,9.344569614478674,13.755129700125135,nan,nan,Kent(MLE),2023-03-21,07:14:04.226231,936.9136046223414,201.56520255122396
2023-03-22,10:00:00,122.99091747934291,11.262813462713375,9.206116095153291,13.62914740940232,nan,nan,Kent(MLE),2023-03-21,07:58:01.319274,937.624884848725,201.1354435309912
2023-03-22,11:00:00,122.97331331823274,11.298915925997347,9.163358778950514,13.496129865309515,nan,nan,Kent(MLE),2023-03-21,09:02:22.709973,938.5777413883715,200.56650287832153
2023-03-22,12:00:00,122.94008118537869,11.369159952826276,9.07695237451959,13.19418489091387,nan,nan,Kent(MLE),2023-03-21,10:53:15.901383,939.9674886262062,199.7219357110553
2023-03-22,13:00:00,122.89666574408484,11.462218383759755,8.914974373320154,12.859277030351592,nan,nan,Kent(MLE),2023-03-21,12:41:13.637288,940.9566890543313,199.32345285012255
2023-03-22,14:00:00,122.83992848148017,11.578347862845728,8.81806521861012,12.652352172610946,nan,nan,Kent(MLE),2023-03-21,13:37:50.518287,941.1069768057241,200.2815190720372
2023-03-22,15:00:00,122.76976352451723,11.736556139560516,8.835557089623746,12.310184521098705,nan,nan,Kent(MLE),2023-03-21,14:30:26.933866,940.9986849385423,202.026993013847
2023-03-22,16:00:00,123.08556245239211,12.568291696802671,8.566077056926307,11.498317993526735,nan,nan,Kent(MLE),2023-03-21,15:23:55.851902,938.7600804797464,213.94008243501145
2023-03-22,17:00:00,123.83169728617402,13.955968167233404,6.98789574478071,10.000702944645052,nan,nan,Kent(MLE),2023-03-21,16:17:58.227196,nan,nan
2023-03-22,18:00:00,124.16945607500666,14.699115891249598,6.3864987743247905,8.805072392267531,nan,nan,Kent(MLE),2023-03-21,17:02:32.591129,nan,nan
2023-03-22,19:00:00,124.94288519469272,15.967427905940424,4.880352611599578,6.424738357693142,nan,nan,Kent(MLE),2023-03-21,17:32:32.501694,nan,nan
2023-03-22,20:00:00,126.09423796643966,17.816074603529284,3.966215747568364,4.24106342416153,nan,nan,Median,2023-03-21,18:18:35.541091,nan,nan
2023-03-22,21:00:00,125.97429383513662,17.779937535888042,2.3039355178942578,1.293371910303273,nan,nan,Median,2023-03-21,19:55:50.564829,nan,nan
2023-03-22,22:00:00,125.85497213618716,17.7418929615032,2.1518703148008824,1.2832260145484453,nan,nan,Median,2023-03-21,21:24:28.511112,nan,nan
2023-03-22,23:00:00,nan,nan,nan,nan,nan,nan,Median,2023-03-21,22:08:18.373133,nan,nan
